Time,B instrument,Bx,By,Bz,sigma B,Ion instrument,Status,Tp_par,Tp_perp,carrot,r_sun,clat,clong,earth_he_angle,n_p,vp_x,vp_y,vp_z,vth_p_par,vth_p_perp
1980-07-24 00:17:36,-1,nan,nan,nan,nan,1,3,nan,nan,1697,0.86113948,3.3505125,225.43587,106.92415,nan,394.314,-26.5704,-12.6181,nan,nan
1980-07-24 01:00:48,-1,nan,nan,nan,nan,1,3,nan,nan,1697,0.86133307,3.3474741,225.03616,106.92288,nan,387.23,-44.7981,-2.46199,nan,nan
1980-07-24 03:15:07,-1,nan,nan,nan,nan,1,3,nan,nan,1697,0.86193973,3.3379364,223.79768,106.91878,nan,410.126,22.5228,-2.31881,nan,nan
1980-07-24 03:17:49,1,-4.0,5.8,2.425,0.785414,1,1,80663.9,92400.1,1697,0.86194867,3.3377953,223.77419,106.91872,4.49102,425.135,24.0706,-27.009,36.492,39.0566
1980-07-24 03:20:31,1,-2.55,6.625,1.5,0.523808,1,1,62036.1,102604.0,1697,0.86196214,3.3375835,223.75066,106.91862,4.57932,398.151,10.7402,16.7862,32.0022,41.1566
1980-07-24 03:20:51,1,-2.925,6.675,2.0,0.297909,1,1,55540.4,96594.1,1697,0.86196214,3.3375835,223.74675,106.91862,4.29234,420.792,27.2827,1.92546,30.2805,39.9331
1980-07-24 03:23:33,1,-2.85,6.725,2.275,0.584166,1,1,49305.1,112809.0,1697,0.86197561,3.3373709,223.71931,106.91853,4.41167,415.393,24.9698,9.6208,28.5301,43.1548
1980-07-24 03:26:15,1,-3.35,6.275,4.6,0.298957,1,1,46834.0,114018.0,1697,0.86198908,3.3371592,223.69579,106.91844,4.66849,412.432,19.191,24.9537,27.806,43.3856
1980-07-24 03:28:57,1,-1.875,5.725,4.375,2.49011,1,1,89265.9,109522.0,1697,0.86199808,3.337018,223.67229,106.91838,5.28241,410.953,18.0455,1.3735,38.3885,42.5216
1980-07-24 03:31:37,1,-2.3,6.8,3.43333,0.410961,1,1,51828.2,112213.0,1697,0.86201149,3.3368063,223.64485,106.91829,4.73977,431.259,29.5731,18.1946,29.251,43.0407
1980-07-24 03:34:19,1,-3.25,5.775,4.7,0.623999,1,1,49522.8,106563.0,1697,0.86202496,3.3365946,223.62132,106.9182,4.53958,414.893,23.7563,23.2105,28.593,41.9432
1980-07-24 04:10:19,-1,nan,nan,nan,nan,1,3,nan,nan,1697,0.86218643,3.3340521,223.28818,106.91708,nan,400.88,13.8178,6.18136,nan,nan
1980-07-24 04:15:43,1,-5.06667,3.73333,-0.666667,0.432049,1,1,40802.5,119166.0,1697,0.86220884,3.3336992,223.24115,106.91693,4.35651,390.083,0.558042,-4.29174,25.9538,44.3541
1980-07-24 04:21:07,1,-4.5,5.2,0.133333,0.188562,1,1,53013.0,131208.0,1697,0.86223572,3.3332758,223.19019,106.91675,5.00594,411.17,15.9531,-13.1981,29.5835,46.5412
1980-07-24 04:27:43,-1,nan,nan,nan,nan,1,4,nan,nan,1697,0.86226267,3.3328524,223.12749,106.91655,nan,nan,nan,nan,nan,nan
1980-07-24 04:31:55,1,-3.76667,5.06667,-0.366667,0.216025,1,1,55574.2,123459.0,1697,0.86228055,3.3325701,223.09221,106.91643,4.73346,410.314,18.6654,-16.5777,30.2897,45.146
1980-07-24 04:37:19,-1,nan,nan,nan,nan,1,3,nan,nan,1697,0.86230743,3.3321466,223.04124,106.91624,nan,403.651,1.96203,-17.1195,nan,nan
1980-07-24 04:42:43,-1,nan,nan,nan,nan,1,3,nan,nan,1697,0.86232984,3.3317938,222.9903,106.91608,nan,397.494,-2.62475,24.3043,nan,nan
1980-07-24 04:58:57,1,0.675,6.3,-0.675,1.02164,1,1,34220.7,110458.0,1697,0.86240155,3.3306646,222.84137,106.91559,4.57185,455.514,15.6289,-33.5388,23.7685,42.7027
1980-07-24 05:04:21,1,-1.875,5.9,-0.85,0.379967,1,1,76357.7,120284.0,1697,0.86242843,3.3302402,222.79039,106.91539,4.82917,421.112,10.3835,-31.7906,35.5046,44.5618
1980-07-24 05:09:45,1,-3.95,4.1,-0.55,2.23159,1,1,49216.5,99672.4,1697,0.86245078,3.3298874,222.74336,106.91524,3.89331,399.911,-20.7577,-36.5542,28.5045,40.5644
1980-07-24 05:15:09,1,-5.03333,4.9,2.4,0.713364,1,1,53002.2,140995.0,1697,0.86247766,3.329464,222.69238,106.91504,5.43161,400.135,3.36672,-7.05917,29.5805,48.2459
1980-07-24 05:20:33,1,-5.625,4.725,2.95,0.318198,1,1,54757.1,145568.0,1697,0.86250007,3.3291111,222.64145,106.91489,5.20169,397.275,9.16621,12.6405,30.0662,49.0219
1980-07-24 05:25:57,1,-5.375,4.5,2.6,0.491808,1,1,57392.9,145207.0,1697,0.86252242,3.3287582,222.5905,106.91472,4.85021,393.047,6.44474,5.6247,30.7813,48.9612
1980-07-24 05:31:21,1,-5.85,4.025,3.9,0.233184,1,1,58609.2,143022.0,1697,0.8625493,3.3283348,222.54344,106.91454,4.94856,396.145,6.75795,20.5401,31.1058,48.5913
1980-07-24 05:36:45,1,-4.06667,5.6,3.5,0.731817,1,1,69313.4,137713.0,1697,0.86257166,3.3279819,222.49251,106.91438,4.46229,410.617,18.7305,14.0663,33.8272,47.681
1980-07-24 05:42:09,1,-3.96667,5.9,3.1,0.579272,1,1,59320.1,142871.0,1697,0.86259854,3.3275585,222.44153,106.91418,4.86291,407.567,16.9916,8.27856,31.2938,48.5658
1980-07-24 05:47:33,1,-2.95,6.3,3.5,0.492443,1,1,61385.0,130783.0,1697,0.86262089,3.3272057,222.3945,106.91403,4.45825,416.106,22.9599,20.0609,31.8338,46.4659
1980-07-24 05:52:57,1,-2.45,6.4,3.125,0.533268,1,1,79610.9,141274.0,1697,0.8626433,3.3268528,222.34355,106.91386,4.15299,423.997,28.3115,5.06258,36.253,48.2936
1980-07-24 05:58:21,1,-4.4,5.65,3.6,0.35,1,1,67280.6,151541.0,1697,0.86267012,3.3264294,222.29259,106.91368,5.3239,407.267,16.604,18.0414,33.3275,50.0176
1980-07-24 06:03:45,1,-4.375,5.35,3.6,0.253722,1,1,56797.7,150572.0,1697,0.86269253,3.3260765,222.24164,106.91351,4.61712,402.766,16.3143,21.5726,30.6213,49.8574
1980-07-24 06:09:09,1,-5.475,4.125,3.175,0.406971,1,1,68243.2,143264.0,1697,0.86271936,3.3256531,222.19458,106.91333,4.68246,395.823,10.8155,12.684,33.5651,48.6326
1980-07-24 06:14:33,1,-5.05,4.575,3.5,0.405432,1,1,65286.3,133917.0,1697,0.86274171,3.3253002,222.14363,106.91316,4.48874,398.15,12.1452,19.1333,32.8299,47.0192
1980-07-24 06:19:57,1,-5.56667,3.9,3.6,0.298142,1,1,55246.6,136781.0,1697,0.86276406,3.3249474,222.0927,106.91301,4.43155,388.166,-0.33392,21.6219,30.2003,47.5193
1980-07-24 06:25:21,1,-6.26667,0.933333,1.33333,0.270801,1,1,45919.8,136537.0,1697,0.86279088,3.3245239,222.04562,106.91281,4.12311,377.744,-19.6289,7.28613,27.5333,47.4769
1980-07-24 06:30:45,1,-5.5,-1.525,0.475,0.532682,1,1,68152.7,147275.0,1697,0.86281323,3.3241711,221.99469,106.91266,4.57348,381.944,-43.8519,0.522899,33.5428,49.3086
1980-07-24 06:36:09,1,-6.175,-2.275,2.325,0.575,1,1,57234.0,109638.0,1697,0.86284006,3.3237476,221.94371,106.91246,3.54196,379.302,-44.9141,3.3832,30.7387,42.5441
1980-07-24 06:41:33,1,-6.5,-0.533333,0.8,0.377124,1,1,69104.1,131254.0,1697,0.86286241,3.3233948,221.89667,106.91229,4.34051,381.632,-33.4706,-0.816968,33.7761,46.5495
1980-07-24 06:46:57,1,-4.875,3.475,1.4,0.508675,1,1,117179.0,148246.0,1697,0.86288476,3.3230419,221.84573,106.91214,5.87387,388.82,-6.99111,-1.70841,43.9828,49.4709
1980-07-24 06:52:21,1,-1.825,6.0,1.5,0.178536,1,1,68561.3,120865.0,1697,0.86291158,3.3226185,221.79475,106.91194,4.74529,419.126,18.04,-3.73061,33.6432,44.6692
1980-07-24 06:57:45,1,-2.55,5.9,3.4,0.4272,1,1,47966.0,139108.0,1697,0.86293399,3.3222656,221.74382,106.91179,5.07611,411.108,17.7393,25.275,28.14,47.9219
1980-07-24 07:03:09,1,-2.525,5.7,1.1,0.766078,1,1,83117.2,135019.0,1697,0.86296076,3.3218431,221.69675,106.91159,4.94616,418.597,19.4266,-6.70336,37.0428,47.2123
1980-07-24 07:08:33,-1,nan,nan,nan,nan,1,4,nan,nan,1697,0.86298311,3.3214903,221.64581,106.91144,nan,nan,nan,nan,nan,nan
1980-07-24 07:13:57,1,-6.6,-0.4,1.46667,0.46428,1,1,71966.6,147707.0,1697,0.8630054,3.3211374,221.59486,106.91127,4.81007,382.872,-40.083,6.80198,34.4686,49.3809
1980-07-24 07:19:21,1,-6.03333,1.73333,0.933333,0.439697,1,1,57146.9,154553.0,1697,0.86303222,3.320714,221.54779,106.91107,4.74126,384.325,-13.9363,5.76442,30.7153,50.5122
1980-07-24 07:24:45,1,-4.125,4.225,5.95,0.448609,1,1,67804.9,137114.0,1697,0.86305457,3.3203611,221.49686,106.91092,4.13012,411.075,10.3213,45.4039,33.4571,47.5772
1980-07-24 07:30:09,1,-3.1,5.95,2.5,0.193649,1,1,63403.6,178771.0,1697,0.86308134,3.3199387,221.44588,106.91072,5.48431,416.532,23.248,13.5626,32.353,54.3258
1980-07-24 07:35:33,1,-3.825,3.725,6.4,0.835913,1,1,52753.5,111057.0,1697,0.86310369,3.3195858,221.39493,106.91055,3.84684,412.381,2.90785,55.6006,29.511,42.8185
1980-07-24 07:40:57,1,-4.125,4.85,2.65,0.94174,1,1,52184.4,145872.0,1697,0.86312598,3.3192329,221.3479,106.9104,4.53366,414.89,20.7312,26.1876,29.3514,49.0731
1980-07-24 07:46:21,1,-1.3,6.275,1.4,0.613901,1,1,85931.4,111479.0,1697,0.8631528,3.3188095,221.29692,106.9102,3.88969,424.094,22.4102,3.92799,37.6646,42.8998
1980-07-24 07:51:45,1,-1.6,5.875,0.575,0.695521,1,1,79161.4,142129.0,1697,0.86317509,3.3184566,221.24599,106.91005,4.76704,427.361,24.6967,-5.1693,36.1505,48.4394
1980-07-24 07:57:09,1,-4.675,1.35,-0.55,1.08944,1,1,46822.8,112473.0,1697,0.86320192,3.3180332,221.19891,106.90985,3.35085,387.831,-13.0836,-15.2638,27.8027,43.0905
1980-07-24 08:02:33,1,-5.575,-0.2,1.025,1.15054,1,1,65032.5,146763.0,1697,0.86322421,3.3176813,221.14796,106.90968,4.94117,380.635,-46.9426,19.114,32.766,49.2228
1980-07-24 08:07:57,-1,nan,nan,nan,nan,1,-3,nan,nan,1697,0.8632465,3.3173285,221.09703,106.90953,nan,426.402,2.44288,-30.565,nan,nan
1980-07-24 08:13:21,-1,nan,nan,nan,nan,1,4,nan,nan,1697,0.86327326,3.316905,221.04605,106.90933,nan,nan,nan,nan,nan,nan
1980-07-24 08:18:45,1,-3.825,5.325,1.425,0.592136,1,1,56271.6,121033.0,1697,0.86329561,3.3165531,220.99901,106.90916,4.3892,396.778,6.33033,7.55116,30.4791,44.7001
1980-07-24 08:24:09,1,-3.675,5.825,0.55,0.739087,1,1,41114.9,99917.6,1697,0.86332238,3.3161297,220.94803,106.90897,3.88166,397.248,12.8947,10.2318,26.053,40.6143
1980-07-24 08:29:33,1,-2.7,4.56667,-0.3,0.434613,1,1,92573.6,138843.0,1697,0.86334467,3.3157768,220.89708,106.9088,4.81613,404.639,12.7305,-14.2369,39.0932,47.8762
1980-07-24 08:34:57,1,-2.15,-4.65,6.075,1.66489,1,1,99392.8,140286.0,1697,0.86336696,3.3154249,220.85004,106.90863,5.02239,404.906,-67.1382,42.4108,40.5075,48.1243
1980-07-24 08:40:21,1,4.275,4.875,1.6,0.488621,1,1,103802.0,136186.0,1697,0.86339372,3.3150015,220.79907,106.90845,4.06275,472.69,6.59124,-2.68567,41.3963,47.4158
1980-07-24 08:45:46,1,-5.8,2.65,1.175,0.514174,1,1,61246.7,133663.0,1697,0.86341602,3.3146496,220.74812,106.90828,5.2002,389.068,1.84816,0.302203,31.7979,46.9746
1980-07-24 08:51:10,1,-5.33333,-3.56667,-0.0333333,0.365148,1,1,76809.4,119185.0,1697,0.86344278,3.3142262,220.70105,106.90808,5.00595,389.87,-55.4337,-10.6902,35.6094,44.3577
1980-07-24 08:56:34,1,-5.225,1.325,-0.675,1.62961,1,1,61181.4,120230.0,1697,0.86346507,3.3138733,220.6501,106.90791,4.8464,380.264,-46.043,8.17068,31.781,44.5516
1980-07-24 09:01:58,1,-1.175,5.2,-1.475,0.619476,1,1,68224.1,83845.6,1697,0.86348736,3.3135214,220.59915,106.90775,3.95513,431.58,8.48711,-33.0771,33.5604,37.2047
1980-07-24 09:07:22,1,-2.3,6.35,3.0,0.269258,1,1,57462.9,118415.0,1697,0.86351413,3.313098,220.54817,106.90755,4.63656,419.902,27.659,15.4527,30.8001,44.2142
1980-07-24 09:12:46,1,1.925,5.3,-1.2,0.389711,1,1,78444.6,98559.1,1697,0.86353642,3.3127451,220.50113,106.90738,4.2297,455.616,14.2777,-22.349,35.9865,40.3372
1980-07-24 09:18:10,1,-3.65,5.575,4.45,0.562917,1,1,47153.4,117749.0,1697,0.86356312,3.3123226,220.45015,106.90718,5.04245,407.469,18.7969,29.9935,27.9007,44.0896
1980-07-24 09:33:43,-1,nan,nan,nan,nan,1,3,nan,nan,1697,0.86362994,3.311265,220.30513,106.90669,nan,436.872,-7.0175,-42.9634,nan,nan
1980-07-24 09:34:22,1,-2.1,6.4,2.1,0.0,1,1,94304.2,133159.0,1697,0.86363441,3.3111944,220.30118,106.90665,5.09823,430.84,25.5692,21.7494,39.4569,46.886
1980-07-24 09:39:46,1,3.1,-0.65,-3.4,0.53619,1,1,79159.6,121481.0,1697,0.8636567,3.3108416,220.25023,106.90648,5.1969,460.302,-48.8817,-37.4756,36.1501,44.783
1980-07-24 09:45:10,1,1.8,-1.4,-3.9,0.0,1,1,57681.2,121908.0,1697,0.8636834,3.3104191,220.19925,106.90628,5.02484,460.107,-49.5819,-36.9423,30.8585,44.8615
1980-07-24 09:50:34,1,-2.575,1.25,-3.3,0.435172,1,1,36952.2,126554.0,1697,0.86370569,3.3100662,220.15221,106.90611,4.09472,404.527,-11.3019,-37.0865,24.6989,45.7084
1980-07-24 09:55:58,1,-3.725,-0.725,-2.55,1.44265,1,1,102980.0,105896.0,1697,0.86372799,3.3097134,220.10126,106.90594,4.78408,408.522,-0.467329,-21.8893,41.232,41.8116
1980-07-24 10:01:22,1,-3.975,0.9,-2.7,0.593191,1,1,50955.4,114552.0,1697,0.86375469,3.3092909,220.05028,106.90575,4.38786,400.212,-21.2287,-30.9666,29.0037,43.487
1980-07-24 10:06:46,1,-3.575,-1.95,-3.1,0.298957,1,1,68494.8,104927.0,1697,0.86377698,3.308938,220.00323,106.90558,4.66088,405.365,-41.5345,-26.1429,33.6269,41.62
1980-07-24 10:12:10,1,-1.45,-2.2,-3.575,0.717199,1,1,56069.7,135538.0,1697,0.86380368,3.3085155,219.95226,106.90538,5.43953,420.207,-45.7401,-36.9635,30.4244,47.3029
1980-07-24 10:17:34,1,-5.775,1.375,-0.4,0.329773,1,1,47794.8,116800.0,1697,0.86382592,3.3081627,219.90131,106.90521,4.68633,386.371,-17.0291,-7.67323,28.0898,43.9115
1980-07-24 10:22:58,1,-3.85,3.45,-0.5,0.724569,1,1,88519.7,121822.0,1697,0.86384815,3.3078108,219.85426,106.90504,5.08442,400.769,-7.24219,-20.5206,38.2277,44.8457
1980-07-24 10:28:22,1,-3.55,4.95,1.6,0.761577,1,1,105101.0,111077.0,1697,0.86387485,3.3073874,219.80328,106.90485,4.69585,408.926,18.2855,9.25142,41.6545,42.8224
1980-07-24 10:33:46,1,-5.075,0.8,-0.775,1.0338,1,1,47162.3,121473.0,1697,0.86389714,3.3070354,219.75233,106.90468,4.50261,389.217,-23.3357,-13.0023,27.9033,44.7815
1980-07-24 10:39:10,1,-5.56667,-0.0333333,-0.666667,0.424264,1,1,58851.9,118026.0,1697,0.86392385,3.306612,219.70135,106.90448,4.63619,385.827,-30.4323,-5.5696,31.1701,44.1415
1980-07-24 10:44:34,1,-5.85,-1.4,-0.375,0.639824,1,1,62081.4,132132.0,1697,0.86394608,3.3062601,219.65431,106.90431,5.07314,388.975,-42.3098,-1.80129,32.0139,46.7049
1980-07-24 10:49:58,1,-6.35,-1.425,1.2,0.338194,1,1,62743.6,109051.0,1697,0.86396831,3.3059072,219.60336,106.90414,4.38523,385.492,-42.0438,4.97566,32.1842,42.43
1980-07-24 10:55:22,1,-6.0,-2.475,3.175,0.564579,1,1,60380.3,127631.0,1697,0.86399502,3.3054848,219.55238,106.90395,5.21232,385.162,-44.9494,21.3209,31.5722,45.9025
1980-07-24 11:00:46,1,-3.3,2.66667,-0.366667,1.59931,1,1,126806.0,127112.0,1697,0.86401731,3.3051329,219.50534,106.90378,5.49095,407.933,-2.35557,-25.999,45.7538,45.809
1980-07-24 11:06:10,1,-0.525,0.65,-3.65,0.60156,1,1,81995.4,96837.1,1697,0.86404395,3.3047094,219.45435,106.90356,4.57191,427.136,-26.4837,-39.2329,36.7919,39.9833
1980-07-24 11:11:34,-1,nan,nan,nan,nan,1,-3,nan,nan,1697,0.86406618,3.3043575,219.4034,106.9034,nan,397.65,-47.117,-12.762,nan,nan
1980-07-24 11:16:58,1,0.975,5.825,0.35,0.419821,1,1,65069.4,104308.0,1697,0.86408842,3.3040056,219.35245,106.90323,4.72468,448.104,28.8808,-2.50506,32.7753,41.4971
1980-07-24 11:22:22,1,-1.45,3.85,-1.475,1.37364,1,1,78937.9,94061.7,1697,0.86411506,3.3035822,219.30536,106.90302,4.19377,422.837,15.7928,-20.3665,36.0995,39.4062
1980-07-24 11:27:46,1,1.75,4.975,2.625,0.562361,1,1,124490.0,121516.0,1697,0.86413729,3.3032303,219.25441,106.90285,4.45029,470.015,23.5744,-9.97987,45.3341,44.7894
1980-07-24 11:33:10,1,0.675,1.775,-3.1,0.639336,1,1,90329.2,81217.4,1697,0.86416394,3.3028078,219.20343,106.90265,4.25425,444.751,-7.57311,-37.0923,38.6164,36.617
1980-07-24 11:38:34,1,-0.65,2.25,-3.1,0.339116,1,1,69446.6,166586.0,1697,0.86418617,3.3024559,219.15639,106.90248,4.75111,417.953,-4.3562,-38.4132,33.8597,52.4417
1980-07-24 11:43:58,1,0.5,2.475,-3.2,0.303109,1,1,60469.6,98114.3,1697,0.8642084,3.302103,219.10544,106.90231,4.02114,437.496,-2.04865,-37.8123,31.5956,40.2461
1980-07-24 11:49:22,1,5.025,2.65,-1.0,0.315238,1,1,80249.0,104189.0,1697,0.86423504,3.3016806,219.05444,106.9021,4.58101,476.445,-5.84615,-25.311,36.398,41.4732
1980-07-24 11:54:46,1,0.075,4.8,-1.0,0.420565,1,1,80288.4,79481.1,1697,0.86425728,3.3013287,219.0074,106.90193,3.82957,419.864,21.3808,-11.7078,36.4069,36.2235
1980-07-24 12:00:10,1,-0.0666667,2.76667,-3.43333,0.734847,1,1,57959.8,88261.6,1697,0.86428398,3.3009062,218.95642,106.90173,4.22078,436.304,7.484,-32.1789,30.9329,38.1719
1980-07-24 12:05:34,1,-1.85,1.475,-3.55,0.294746,1,1,36890.4,102302.0,1697,0.86430615,3.3005533,218.90546,106.90155,4.28523,419.16,-5.58339,-39.5656,24.6783,41.096
1980-07-24 12:10:58,1,0.0,3.225,-2.9,0.454835,1,1,79492.1,88860.6,1697,0.86432838,3.3002014,218.85451,106.90138,3.77912,432.414,11.059,-31.2727,36.226,38.3012
1980-07-24 12:16:22,1,-5.4,-0.425,-0.725,0.750833,1,1,61216.7,96568.9,1697,0.86435503,3.2997789,218.80743,106.90118,4.23734,386.194,-30.2245,-15.4222,31.7902,39.9279
1980-07-24 12:21:46,1,-4.85,3.875,1.4,0.761167,1,1,47754.0,98241.6,1697,0.8643772,3.2994261,218.75647,106.901,4.19704,393.478,17.4376,3.15398,28.0778,40.2722
1980-07-24 12:27:10,1,-5.1,2.16667,0.133333,0.473756,1,1,69272.5,108102.0,1697,0.86440384,3.2990036,218.70549,106.9008,4.32766,391.745,-5.3317,-12.5723,33.8172,42.2449
1980-07-24 12:32:34,1,-4.775,0.325,-0.325,1.26713,1,1,38375.2,110419.0,1697,0.86442608,3.2986517,218.65845,106.90063,4.13295,376.852,-21.7992,24.2223,25.17,42.6953
1980-07-24 12:37:58,1,-6.4,1.15,2.5,0.342783,1,1,82808.1,127287.0,1697,0.86444825,3.2982988,218.60748,106.90045,4.45778,380.388,-16.2149,16.4874,36.9738,45.8405
1980-07-24 12:43:22,-1,nan,nan,nan,nan,1,4,nan,nan,1697,0.86447489,3.2978764,218.5565,106.90025,nan,nan,nan,nan,nan,nan
1980-07-24 12:48:46,1,-6.43333,-0.133333,4.53333,0.33665,1,1,56527.5,115487.0,1697,0.86449713,3.2975245,218.50555,106.90009,4.37026,381.76,-24.5512,30.474,30.5483,43.6642
1980-07-24 12:54:10,1,-6.175,0.45,4.2,0.504356,1,1,50898.2,133999.0,1697,0.86452377,3.297102,218.45847,106.89987,4.36965,384.629,-31.2881,43.0919,28.9874,47.0337
1980-07-24 12:59:34,1,-6.53333,1.66667,3.0,0.253859,1,1,41838.9,117015.0,1697,0.86454594,3.2967491,218.40752,106.8997,4.35906,380.245,-8.09535,25.9099,26.2814,43.9521
1980-07-24 13:04:58,1,-6.3,1.13333,2.4,1.24186,1,1,39824.1,89931.4,1697,0.86456811,3.2963972,218.35655,106.89952,3.37364,378.913,-9.04961,25.4947,25.6408,38.5313
1980-07-24 13:10:22,1,-4.73333,2.76667,0.8,0.210819,1,1,73199.2,104005.0,1697,0.86459476,3.2959747,218.30948,106.89932,4.25581,383.714,0.816943,0.214275,34.7625,41.4367
1980-07-24 13:15:46,1,-2.55,0.1,-2.55,1.83712,1,1,116739.0,136406.0,1697,0.86461693,3.2956228,218.25851,106.89914,4.80041,420.86,-36.841,-40.7775,43.9002,47.4542
1980-07-24 13:21:10,1,-3.35,2.65,-1.6,0.430116,1,1,82588.6,126587.0,1697,0.86464351,3.2952003,218.20753,106.89894,4.70683,405.909,-8.07939,-36.8096,36.9248,45.7144
1980-07-24 13:26:34,1,-2.175,4.575,-0.6,0.467707,1,1,84631.8,117585.0,1697,0.86466569,3.2948475,218.16048,106.89876,4.32631,411.525,17.3823,-22.5948,37.3788,44.059
1980-07-24 13:31:58,1,-6.2,1.0,1.6,2.22045e-16,1,1,71167.7,123662.0,1697,0.86468786,3.2944956,218.10953,106.89859,4.8214,383.557,-5.41162,0.281109,34.2767,45.183
1980-07-24 13:37:22,1,-6.2,-0.2,1.2,0.270801,1,1,48747.1,111698.0,1697,0.86471444,3.2940731,218.05853,106.89838,4.13167,378.425,-18.1344,7.5128,28.3682,42.9419
1980-07-24 13:42:46,1,-6.625,-0.075,4.2,0.314245,1,1,73380.4,142329.0,1697,0.86473662,3.2937212,218.00758,106.89821,4.52398,381.696,-16.875,27.5396,34.8055,48.4736
1980-07-24 13:48:10,1,-6.2,1.225,1.8,0.334477,1,1,48369.9,127133.0,1697,0.86476326,3.2932987,217.96049,106.89799,4.16976,379.156,-7.7127,5.78297,28.2583,45.8128
1980-07-24 13:53:34,1,-5.7,1.0,0.4,0.365148,1,1,85852.9,126313.0,1697,0.86478543,3.2929459,217.90955,106.89783,4.85379,387.696,-4.31624,-11.0805,37.6474,45.6648
1980-07-24 13:58:58,1,-5.93333,-0.733333,0.666667,0.424264,1,1,44433.7,118975.0,1697,0.86480761,3.292594,217.85858,106.89764,3.99628,378.261,-21.5913,-0.339446,27.0841,44.3185
1980-07-24 14:04:22,1,-6.275,-2.05,0.9,0.298957,1,1,59112.5,155241.0,1697,0.86483419,3.2921715,217.81149,106.89743,4.70615,381.227,-39.6011,0.70601,31.239,50.6246
1980-07-24 14:09:46,1,-6.4,-1.3,1.2,0.0,1,1,52670.9,127726.0,1697,0.8648563,3.2918196,217.76054,106.89726,4.20462,378.157,-30.607,6.86457,29.4879,45.9195
1980-07-24 14:15:10,1,-6.46667,-0.933333,1.73333,0.282843,1,1,84161.2,147258.0,1697,0.86488289,3.2913971,217.70955,106.89705,4.84753,378.563,-27.3318,3.11016,37.2747,49.3058
1980-07-24 14:20:34,1,-6.53333,-1.2,2.13333,0.24037,1,1,61109.3,128915.0,1697,0.86490506,3.2910452,217.6586,106.89688,4.89532,377.434,-31.0564,11.8513,31.7623,46.1328
1980-07-24 14:25:58,1,-6.3,-2.075,2.7,0.258602,1,1,53933.3,114997.0,1697,0.86492717,3.2906933,217.61154,106.8967,4.29966,379.516,-37.5117,18.1767,29.8391,43.5713
1980-07-24 14:31:22,1,-5.925,-2.15,4.475,0.237171,1,1,68847.8,119716.0,1697,0.86495376,3.2902708,217.56055,106.89648,4.41265,379.367,-41.8111,32.9349,33.7134,44.4564
1980-07-24 14:36:46,1,-5.96667,-2.33333,3.56667,0.83666,1,1,86892.0,125921.0,1697,0.86497587,3.2899189,217.5096,106.89632,4.52238,382.371,-45.5294,4.91944,37.8746,45.5939
1980-07-24 14:42:10,1,-5.375,-2.025,-0.1,0.337268,1,1,83332.6,140349.0,1697,0.86500245,3.2894964,217.46251,106.8961,4.57673,384.292,-42.3075,-15.6788,37.0907,48.1351
1980-07-24 14:47:34,1,-3.925,-4.75,0.525,0.6255,1,1,93652.8,122140.0,1697,0.86502463,3.2891445,217.41154,106.89592,4.44804,397.185,-58.3132,-7.437,39.3204,44.9043
1980-07-24 14:52:58,-1,nan,nan,nan,nan,1,4,nan,nan,1697,0.86504674,3.2887926,217.3606,106.89575,nan,nan,nan,nan,nan,nan
1980-07-24 14:58:19,1,3.225,4.225,4.425,0.490535,1,1,92995.1,111096.0,1698,0.86510575,3.1769426,217.24408,106.82611,3.94745,472.389,12.2063,23.7268,39.1821,42.8259
1980-07-24 15:01:57,-1,nan,nan,nan,nan,1,4,nan,nan,1697,0.86508662,3.2881594,217.27824,106.89543,nan,nan,nan,nan,nan,nan
1980-07-24 15:45:09,-1,nan,nan,nan,nan,1,3,nan,nan,1697,0.86528128,3.2850628,216.87825,106.89388,nan,409.207,6.13778,55.3382,nan,nan
1980-07-24 15:55:57,-1,nan,nan,nan,nan,1,3,nan,nan,1697,0.86532551,3.284359,216.78023,106.89351,nan,419.617,25.3518,-7.68244,nan,nan
1980-07-24 17:34:21,-1,nan,nan,nan,nan,1,3,nan,nan,1697,0.86576283,3.2773943,215.87431,106.88994,nan,369.824,-46.2923,33.1184,nan,nan
1980-07-24 17:45:09,-1,nan,nan,nan,nan,1,3,nan,nan,1697,0.86581141,3.2766209,215.77234,106.88953,nan,375.211,2.14353,7.94091,nan,nan
1980-07-24 17:54:45,-1,nan,nan,nan,nan,1,3,nan,nan,1697,0.8658511,3.2759876,215.68608,106.88921,nan,366.834,-12.6873,1.28379,nan,nan
1980-07-24 18:05:33,-1,nan,nan,nan,nan,1,3,nan,nan,1697,0.86589962,3.2752142,215.58412,106.88881,nan,378.86,7.83248,2.73084,nan,nan
1980-07-24 18:16:21,-1,nan,nan,nan,nan,1,3,nan,nan,1697,0.86594814,3.2744408,215.48605,106.8884,nan,416.679,29.2259,-7.89547,nan,nan
1980-07-24 18:27:09,-1,nan,nan,nan,nan,1,3,nan,nan,1697,0.86599666,3.2736673,215.38409,106.888,nan,400.837,11.357,-25.7802,nan,nan
1980-07-24 18:37:57,-1,nan,nan,nan,nan,1,4,nan,nan,1697,0.86604071,3.2729635,215.28607,106.88763,nan,nan,nan,nan,nan,nan
1980-07-24 18:48:45,-1,nan,nan,nan,nan,1,3,nan,nan,1697,0.86608922,3.2721901,215.1841,106.88722,nan,389.946,0.199789,-23.8784,nan,nan
1980-07-24 18:59:33,-1,nan,nan,nan,nan,1,3,nan,nan,1697,0.86613774,3.2714167,215.08604,106.88683,nan,393.802,23.7324,15.4754,nan,nan
1980-07-24 19:10:21,-1,nan,nan,nan,nan,1,3,nan,nan,1697,0.86618614,3.2706432,214.98798,106.88641,nan,393.564,14.2861,-17.9696,nan,nan
1980-07-24 19:21:09,-1,nan,nan,nan,nan,1,3,nan,nan,1697,0.8662346,3.2698708,214.886,106.886,nan,401.994,30.9212,-1.39203,nan,nan
1980-07-24 19:59:43,-1,nan,nan,nan,nan,1,4,nan,nan,1697,0.86640191,3.2671986,214.52913,106.8846,nan,nan,nan,nan,nan,nan
1980-07-24 20:00:17,1,-1.42162,4.6973,-1.52432,0.887154,1,1,94531.0,99775.5,1697,0.86640632,3.2671289,214.52519,106.88457,4.53475,415.535,18.9663,-30.5352,39.5044,40.5854
1980-07-24 20:00:57,1,-2.37667,3.69667,-1.81833,1.20206,1,1,53761.9,91870.4,1697,0.86640632,3.267128,214.52129,106.88457,4.03787,402.283,15.7747,-33.0267,29.7917,38.9445
1980-07-24 20:01:38,1,-3.0,2.96491,-2.0386,0.816764,1,1,65971.7,111162.0,1697,0.86641067,3.2670584,214.51343,106.88452,4.0658,403.548,17.2664,-30.694,33.0017,42.8387
1980-07-24 20:02:19,1,-3.11,2.46333,-2.26333,0.79909,1,1,66286.0,132574.0,1697,0.86641508,3.2669878,214.50558,106.88449,4.66241,391.559,-2.4082,-36.8477,33.0802,46.7828
1980-07-24 20:03:01,1,-3.1,-0.204167,-2.3875,1.39875,1,1,67985.8,108318.0,1697,0.86641949,3.2669172,214.50163,106.88445,4.30236,391.432,-6.63523,-41.3476,33.5017,42.2872
1980-07-24 20:03:40,1,-2.96552,3.02586,-1.71724,1.59528,1,1,116319.0,111470.0,1697,0.86641949,3.2669172,214.49382,106.88445,4.39164,398.965,-40.7113,-41.4545,43.8211,42.8981
1980-07-24 20:04:20,1,-2.94912,3.90702,-1.4193,0.819803,1,1,66174.3,118226.0,1697,0.8664239,3.2668476,214.48988,106.88441,4.33712,401.205,23.2229,-24.8112,33.0524,44.1788